WXM80 ListenWXM80 Stop

You find our weather info also at:

UK Metoffice

WeatherCloud

Weather Underground

Northeastern Weather Network

AWEKAS

Citizen Weather Observer Program (CWOP)

HAMweather, WeatherForYou, PWS Weather


Weather Underground History page Text

Daily Summary for November 7, 2017 Units:  English    Metric   Both
« Previous Day
Next Day »
Daily Weekly Monthly Yearly Custom
  High: Low: Average:
Temperature: 50.4 °F 42.2 °F 46.5 °F
Dew Point: 42.9 °F 38.8 °F 41 °F
Humidity: 96 % 69 % 81 %
Wind Speed: 12.6 mph 0.8 mph 6 mph
Wind Gust: 20.7 mph - -
Wind:- - ENE
Pressure: 30.23 in 29.92 in -
Precipitation: 0.07 in    
Historical Graphs
 
 
Tabular Data for November 7, 2017
Time Temperature Dew Point Pressure Wind Wind Speed Wind Gust Humidity Rainfall Rate (Hourly)
00:04 49.1 °F 42.5 °F 30.11 in NNE 8.4 mph 13.0 mph 78 % 0.00 in
00:09 49.0 °F 42.8 °F 30.11 in North 6.4 mph 12.7 mph 79 % 0.00 in
00:14 48.8 °F 42.6 °F 30.11 in NE 7.0 mph 11.0 mph 79 % 0.00 in
00:19 48.8 °F 42.2 °F 30.11 in NNE 5.2 mph 6.9 mph 78 % 0.00 in
00:24 48.7 °F 42.5 °F 30.11 in North 4.9 mph 8.1 mph 79 % 0.00 in
00:29 48.6 °F 42.0 °F 30.11 in North 7.5 mph 11.5 mph 78 % 0.00 in
00:34 48.6 °F 42.0 °F 30.11 in NE 7.5 mph 11.5 mph 78 % 0.00 in
00:39 48.5 °F 42.0 °F 30.11 in NNW 5.7 mph 11.5 mph 78 % 0.00 in
00:44 48.5 °F 42.0 °F 30.11 in NNE 7.8 mph 13.8 mph 78 % 0.00 in
00:49 48.4 °F 41.5 °F 30.11 in North 4.9 mph 9.2 mph 77 % 0.00 in
00:54 48.3 °F 41.8 °F 30.12 in NNE 5.8 mph 10.4 mph 78 % 0.00 in
00:59 48.3 °F 41.8 °F 30.12 in North 7.1 mph 11.5 mph 78 % 0.00 in
01:04 48.2 °F 41.3 °F 30.11 in NNW 8.3 mph 11.5 mph 77 % 0.00 in
01:09 48.2 °F 41.3 °F 30.12 in NNE 7.9 mph 10.4 mph 77 % 0.00 in
01:20 48.1 °F 41.2 °F 30.12 in NNE 5.7 mph 11.5 mph 77 % 0.00 in
01:25 48.1 °F 41.2 °F 30.12 in North 3.7 mph 5.8 mph 77 % 0.00 in
01:30 48.0 °F 40.8 °F 30.12 in NNE 5.1 mph 12.7 mph 76 % 0.00 in
01:35 47.9 °F 41.0 °F 30.12 in NNE 7.7 mph 11.5 mph 77 % 0.00 in
01:40 47.9 °F 40.7 °F 30.12 in North 7.3 mph 11.5 mph 76 % 0.00 in
01:45 47.8 °F 40.6 °F 30.12 in North 8.6 mph 11.5 mph 76 % 0.00 in
01:50 47.8 °F 40.6 °F 30.12 in North 8.3 mph 11.5 mph 76 % 0.00 in
01:55 47.7 °F 40.2 °F 30.12 in NNE 9.1 mph 13.8 mph 75 % 0.00 in
02:00 47.6 °F 40.1 °F 30.12 in NNW 5.1 mph 15.0 mph 75 % 0.00 in
02:05 47.6 °F 40.4 °F 30.12 in NNW 5.3 mph 11.5 mph 76 % 0.00 in
02:10 47.5 °F 40.3 °F 30.12 in NE 8.1 mph 11.5 mph 76 % 0.00 in
02:15 47.5 °F 40.6 °F 30.12 in NNW 7.1 mph 10.4 mph 77 % 0.00 in
02:20 47.4 °F 40.6 °F 30.12 in NNW 6.1 mph 9.2 mph 77 % 0.00 in
02:25 47.3 °F 40.5 °F 30.13 in North 5.7 mph 11.5 mph 77 % 0.00 in
02:30 47.3 °F 40.5 °F 30.12 in North 5.2 mph 8.1 mph 77 % 0.00 in
02:35 47.2 °F 40.7 °F 30.12 in NNE 3.6 mph 6.9 mph 78 % 0.00 in
02:40 47.2 °F 41.0 °F 30.13 in North 5.1 mph 8.1 mph 79 % 0.00 in
02:45 47.0 °F 40.8 °F 30.13 in NNE 8.6 mph 12.0 mph 79 % 0.00 in
02:50 46.9 °F 40.4 °F 30.13 in North 7.2 mph 15.0 mph 78 % 0.00 in
02:55 46.9 °F 40.4 °F 30.13 in NNE 6.7 mph 12.0 mph 78 % 0.00 in
03:00 46.8 °F 40.3 °F 30.14 in North 6.8 mph 17.3 mph 78 % 0.00 in
03:05 46.7 °F 40.2 °F 30.14 in NNE 6.8 mph 11.5 mph 78 % 0.00 in
03:10 46.5 °F 39.7 °F 30.14 in NNE 8.6 mph 11.5 mph 77 % 0.00 in
03:15 46.4 °F 39.6 °F 30.14 in NNE 7.1 mph 12.7 mph 77 % 0.00 in
03:20 46.3 °F 39.8 °F 30.14 in NNE 8.3 mph 16.1 mph 78 % 0.00 in
03:25 46.2 °F 39.7 °F 30.15 in NNE 4.3 mph 6.9 mph 78 % 0.00 in
03:30 46.1 °F 39.6 °F 30.15 in North 6.4 mph 12.0 mph 78 % 0.00 in
03:35 46.0 °F 39.5 °F 30.15 in North 5.5 mph 9.2 mph 78 % 0.00 in
03:40 45.9 °F 39.8 °F 30.15 in North 8.0 mph 10.4 mph 79 % 0.00 in
03:45 45.9 °F 39.8 °F 30.15 in NNW 8.1 mph 13.8 mph 79 % 0.00 in
03:50 45.8 °F 39.7 °F 30.15 in NNE 7.5 mph 12.7 mph 79 % 0.00 in
03:56 45.7 °F 39.6 °F 30.16 in NNE 5.7 mph 11.5 mph 79 % 0.00 in
04:01 45.6 °F 39.1 °F 30.16 in NW 4.4 mph 9.2 mph 78 % 0.00 in
04:06 45.5 °F 39.4 °F 30.16 in NNE 8.7 mph 12.7 mph 79 % 0.00 in
04:11 45.5 °F 39.4 °F 30.17 in NE 9.8 mph 15.0 mph 79 % 0.00 in
04:16 45.4 °F 39.3 °F 30.16 in North 4.8 mph 9.2 mph 79 % 0.00 in
04:21 45.4 °F 39.3 °F 30.17 in North 8.0 mph 13.0 mph 79 % 0.00 in
04:26 45.3 °F 38.8 °F 30.17 in North 6.0 mph 16.0 mph 78 % 0.00 in
04:31 45.2 °F 39.1 °F 30.17 in North 9.4 mph 12.0 mph 79 % 0.00 in
04:35 45.2 °F 39.1 °F 30.17 in NE 5.1 mph 11.5 mph 79 % 0.00 in
04:40 45.1 °F 39.3 °F 30.17 in North 5.0 mph 9.2 mph 80 % 0.00 in
04:46 45.1 °F 39.3 °F 30.17 in North 7.0 mph 13.0 mph 80 % 0.00 in
04:51 45.0 °F 38.9 °F 30.17 in North 6.2 mph 9.2 mph 79 % 0.00 in
04:56 45.0 °F 38.9 °F 30.17 in North 7.0 mph 13.0 mph 79 % 0.00 in
05:01 45.0 °F 38.9 °F 30.18 in North 6.8 mph 10.4 mph 79 % 0.00 in
05:06 45.0 °F 38.9 °F 30.18 in NNE 7.0 mph 13.0 mph 79 % 0.00 in
05:11 45.0 °F 39.2 °F 30.17 in NNE 7.0 mph 14.0 mph 80 % 0.00 in
05:16 45.0 °F 39.2 °F 30.17 in NNE 9.0 mph 13.0 mph 80 % 0.00 in
05:21 45.0 °F 38.9 °F 30.17 in NNE 6.9 mph 11.5 mph 79 % 0.00 in
05:25 44.9 °F 39.1 °F 30.17 in North 7.1 mph 11.5 mph 80 % 0.00 in
05:30 44.9 °F 39.1 °F 30.17 in NNE 7.0 mph 10.4 mph 80 % 0.00 in
05:35 44.8 °F 39.0 °F 30.17 in NE 6.1 mph 12.7 mph 80 % 0.00 in
05:40 44.8 °F 39.0 °F 30.17 in NE 6.9 mph 10.4 mph 80 % 0.00 in
05:45 44.8 °F 39.0 °F 30.17 in East 2.9 mph 6.9 mph 80 % 0.00 in
05:51 44.7 °F 38.9 °F 30.17 in NNE 7.0 mph 12.0 mph 80 % 0.00 in
05:56 44.7 °F 38.9 °F 30.17 in NNE 3.0 mph 13.0 mph 80 % 0.00 in
06:01 44.7 °F 39.2 °F 30.18 in NNW 6.1 mph 9.0 mph 81 % 0.00 in
06:06 44.7 °F 39.2 °F 30.18 in NNE 5.0 mph 12.0 mph 81 % 0.00 in
06:11 44.7 °F 39.2 °F 30.18 in NNE 6.0 mph 12.0 mph 81 % 0.00 in
06:16 44.7 °F 39.2 °F 30.18 in NNE 2.3 mph 8.1 mph 81 % 0.00 in
06:21 44.7 °F 39.2 °F 30.18 in NE 4.5 mph 10.4 mph 81 % 0.00 in
06:26 44.7 °F 39.2 °F 30.18 in North 2.4 mph 9.2 mph 81 % 0.00 in
06:36 44.7 °F 39.2 °F 30.18 in NNE 3.4 mph 6.9 mph 81 % 0.00 in
06:41 44.7 °F 39.5 °F 30.18 in NNE 6.9 mph 10.4 mph 82 % 0.00 in
06:46 44.8 °F 39.6 °F 30.18 in ENE 6.1 mph 11.5 mph 82 % 0.00 in
06:51 44.8 °F 39.3 °F 30.18 in NNE 4.6 mph 9.2 mph 81 % 0.00 in
06:56 44.9 °F 39.4 °F 30.19 in NNE 6.9 mph 11.5 mph 81 % 0.00 in
07:01 45.0 °F 39.5 °F 30.19 in NNE 4.6 mph 11.5 mph 81 % 0.00 in
07:06 45.1 °F 39.6 °F 30.20 in NE 4.1 mph 11.5 mph 81 % 0.00 in
07:11 45.1 °F 39.6 °F 30.20 in NE 4.3 mph 13.8 mph 81 % 0.00 in
07:16 45.2 °F 39.7 °F 30.19 in NE 4.6 mph 6.9 mph 81 % 0.00 in
07:21 45.3 °F 39.8 °F 30.19 in NNE 4.1 mph 9.2 mph 81 % 0.00 in
07:31 45.4 °F 40.2 °F 30.19 in NNE 3.3 mph 4.6 mph 82 % 0.00 in
07:36 45.5 °F 40.0 °F 30.19 in ENE 8.5 mph 13.8 mph 81 % 0.00 in
07:41 45.6 °F 39.8 °F 30.19 in ENE 6.9 mph 10.4 mph 80 % 0.00 in
07:46 45.7 °F 39.6 °F 30.20 in ENE 5.8 mph 11.5 mph 79 % 0.00 in
07:51 45.8 °F 40.0 °F 30.20 in NE 3.9 mph 9.0 mph 80 % 0.00 in
07:56 45.8 °F 40.0 °F 30.20 in NE 4.6 mph 6.9 mph 80 % 0.00 in
08:06 46.0 °F 40.5 °F 30.21 in NE 7.4 mph 10.4 mph 81 % 0.00 in
08:11 46.0 °F 40.5 °F 30.22 in North 6.9 mph 10.4 mph 81 % 0.00 in
08:16 46.1 °F 40.3 °F 30.21 in ENE 8.5 mph 12.7 mph 80 % 0.00 in
08:21 46.1 °F 40.3 °F 30.21 in ENE 6.0 mph 10.4 mph 80 % 0.00 in
08:26 46.3 °F 40.8 °F 30.21 in ENE 6.7 mph 11.5 mph 81 % 0.00 in
08:31 46.4 °F 41.2 °F 30.22 in NE 8.2 mph 13.8 mph 82 % 0.00 in
08:36 46.4 °F 40.9 °F 30.21 in ENE 7.4 mph 11.5 mph 81 % 0.00 in
08:41 46.5 °F 41.0 °F 30.22 in ESE 5.6 mph 11.5 mph 81 % 0.00 in
08:46 46.7 °F 41.2 °F 30.21 in NE 4.5 mph 11.5 mph 81 % 0.00 in
08:51 46.9 °F 41.1 °F 30.21 in NNE 6.5 mph 10.4 mph 80 % 0.00 in
08:56 47.1 °F 41.2 °F 30.20 in NNE 3.1 mph 4.6 mph 80 % 0.00 in
09:01 47.2 °F 41.0 °F 30.20 in East 5.3 mph 8.1 mph 79 % 0.00 in
09:06 47.1 °F 40.6 °F 30.21 in ENE 7.9 mph 11.5 mph 78 % 0.00 in
09:11 47.1 °F 40.6 °F 30.22 in NE 5.9 mph 10.4 mph 78 % 0.00 in
09:16 47.2 °F 41.0 °F 30.21 in ENE 6.6 mph 10.4 mph 79 % 0.00 in
09:21 47.4 °F 41.2 °F 30.22 in North 3.2 mph 6.9 mph 79 % 0.00 in
09:26 47.7 °F 41.5 °F 30.21 in NNE 3.1 mph 5.8 mph 79 % 0.00 in
09:31 47.9 °F 41.4 °F 30.21 in North 4.0 mph 9.2 mph 78 % 0.00 in
09:36 47.9 °F 40.7 °F 30.22 in NE 5.3 mph 9.2 mph 76 % 0.00 in
09:41 47.9 °F 40.7 °F 30.23 in NW 3.0 mph 9.2 mph 76 % 0.00 in
09:46 48.0 °F 40.8 °F 30.22 in ENE 6.4 mph 10.4 mph 76 % 0.00 in
09:51 48.1 °F 41.2 °F 30.23 in NE 1.5 mph 3.5 mph 77 % 0.00 in
09:57 48.4 °F 41.5 °F 30.22 in NE 4.2 mph 8.1 mph 77 % 0.00 in
10:02 48.6 °F 41.7 °F 30.22 in NNE 3.2 mph 4.6 mph 77 % 0.00 in
10:07 49.0 °F 42.1 °F 30.21 in ENE 3.2 mph 6.9 mph 77 % 0.00 in
10:12 49.2 °F 41.3 °F 30.21 in NNE 3.3 mph 5.8 mph 74 % 0.00 in
10:17 49.4 °F 41.8 °F 30.21 in ENE 4.8 mph 8.1 mph 75 % 0.00 in
10:22 49.8 °F 42.2 °F 30.21 in North 4.9 mph 9.2 mph 75 % 0.00 in
10:27 50.1 °F 41.8 °F 30.21 in NNE 2.9 mph 7.0 mph 73 % 0.00 in
10:32 50.3 °F 42.3 °F 30.20 in NNE 7.1 mph 10.4 mph 74 % 0.00 in
10:37 50.3 °F 42.0 °F 30.20 in NE 2.5 mph 6.9 mph 73 % 0.00 in
10:42 50.2 °F 41.9 °F 30.20 in NNE 2.7 mph 8.1 mph 73 % 0.00 in
10:47 50.1 °F 41.8 °F 30.20 in North 4.5 mph 8.1 mph 73 % 0.00 in
10:52 50.1 °F 42.1 °F 30.20 in NE 4.6 mph 9.2 mph 74 % 0.00 in
10:58 50.0 °F 41.7 °F 30.20 in NNE 2.1 mph 6.9 mph 73 % 0.00 in
11:03 49.9 °F 41.2 °F 30.20 in NE 0.8 mph 6.9 mph 72 % 0.00 in
11:08 49.8 °F 41.1 °F 30.19 in ENE 3.4 mph 5.8 mph 72 % 0.00 in
11:13 49.8 °F 41.1 °F 30.20 in NE 1.6 mph 6.9 mph 72 % 0.00 in
11:18 49.9 °F 41.2 °F 30.20 in NNE 3.9 mph 6.9 mph 72 % 0.00 in
11:23 49.9 °F 40.9 °F 30.20 in ENE 1.3 mph 3.0 mph 71 % 0.00 in
11:28 50.0 °F 41.7 °F 30.20 in North 4.3 mph 6.9 mph 73 % 0.00 in
11:33 50.0 °F 41.3 °F 30.20 in NE 2.2 mph 6.9 mph 72 % 0.00 in
11:38 50.0 °F 41.3 °F 30.20 in NNE 4.6 mph 8.1 mph 72 % 0.00 in
11:43 50.1 °F 41.1 °F 30.19 in NNE 6.0 mph 8.1 mph 71 % 0.00 in
11:48 50.1 °F 41.8 °F 30.18 in NE 2.2 mph 4.6 mph 73 % 0.00 in
11:53 50.1 °F 41.4 °F 30.19 in North 2.0 mph 8.1 mph 72 % 0.00 in
11:58 50.1 °F 41.4 °F 30.19 in NE 4.3 mph 6.0 mph 72 % 0.00 in
12:03 50.2 °F 41.5 °F 30.18 in North 4.0 mph 6.9 mph 72 % 0.00 in
12:08 50.2 °F 41.5 °F 30.18 in NNE 4.3 mph 5.0 mph 72 % 0.00 in
12:13 50.2 °F 41.5 °F 30.19 in NNE 4.4 mph 6.0 mph 72 % 0.00 in
12:18 50.2 °F 41.5 °F 30.19 in North 3.2 mph 6.0 mph 72 % 0.00 in
12:23 50.2 °F 41.5 °F 30.19 in NNE 3.0 mph 4.6 mph 72 % 0.00 in
12:28 50.2 °F 41.5 °F 30.19 in NNE 6.3 mph 8.0 mph 72 % 0.00 in
12:33 50.1 °F 41.4 °F 30.19 in NNE 3.9 mph 6.9 mph 72 % 0.00 in
12:38 50.1 °F 41.4 °F 30.19 in NNE 2.1 mph 7.0 mph 72 % 0.00 in
12:44 50.1 °F 41.4 °F 30.19 in NNE 4.7 mph 6.9 mph 72 % 0.00 in
12:49 50.2 °F 41.5 °F 30.18 in NNW 4.9 mph 8.1 mph 72 % 0.00 in
12:54 50.3 °F 41.6 °F 30.18 in NNE 4.5 mph 9.2 mph 72 % 0.00 in
12:59 50.4 °F 41.3 °F 30.18 in North 1.9 mph 8.1 mph 71 % 0.00 in
13:04 50.4 °F 41.7 °F 30.17 in North 4.4 mph 6.9 mph 72 % 0.00 in
13:09 50.4 °F 41.3 °F 30.17 in ENE 3.6 mph 11.5 mph 71 % 0.00 in
13:14 50.4 °F 41.7 °F 30.17 in NNE 4.7 mph 9.2 mph 72 % 0.00 in
13:19 50.3 °F 41.3 °F 30.17 in NE 3.1 mph 9.0 mph 71 % 0.00 in
13:24 50.3 °F 41.3 °F 30.17 in NNE 4.9 mph 11.5 mph 71 % 0.00 in
13:29 50.2 °F 41.2 °F 30.17 in NE 2.6 mph 4.6 mph 71 % 0.00 in
13:34 50.1 °F 41.4 °F 30.16 in ENE 2.7 mph 5.0 mph 72 % 0.00 in
13:39 50.1 °F 41.1 °F 30.14 in ENE 4.4 mph 8.1 mph 71 % 0.00 in
13:44 50.1 °F 41.1 °F 30.14 in NNE 4.4 mph 9.2 mph 71 % 0.00 in
13:49 50.1 °F 41.1 °F 30.13 in NNE 4.6 mph 9.2 mph 71 % 0.00 in
13:54 50.1 °F 40.3 °F 30.13 in ENE 7.2 mph 10.4 mph 69 % 0.00 in
13:59 50.1 °F 41.1 °F 30.12 in ENE 6.5 mph 11.5 mph 71 % 0.00 in
14:04 50.1 °F 41.1 °F 30.10 in East 6.7 mph 10.0 mph 71 % 0.00 in
14:09 50.1 °F 40.7 °F 30.09 in ENE 9.1 mph 12.7 mph 70 % 0.00 in
14:14 50.2 °F 40.8 °F 30.09 in NNE 3.5 mph 8.1 mph 70 % 0.00 in
14:19 50.2 °F 41.2 °F 30.09 in ENE 7.6 mph 11.5 mph 71 % 0.00 in
14:24 50.3 °F 41.3 °F 30.10 in NNE 4.3 mph 8.1 mph 71 % 0.00 in
14:29 50.3 °F 41.6 °F 30.10 in ENE 3.7 mph 9.2 mph 72 % 0.00 in
14:34 50.3 °F 40.5 °F 30.12 in ENE 8.2 mph 12.7 mph 69 % 0.00 in
14:39 50.2 °F 40.4 °F 30.13 in ENE 4.6 mph 5.8 mph 69 % 0.00 in
14:44 50.2 °F 40.4 °F 30.13 in NE 6.6 mph 9.2 mph 69 % 0.00 in
14:49 50.1 °F 40.7 °F 30.14 in ENE 4.5 mph 8.1 mph 70 % 0.00 in
14:54 50.1 °F 40.7 °F 30.14 in NE 5.0 mph 6.9 mph 70 % 0.00 in
14:59 50.0 °F 40.6 °F 30.15 in ENE 2.7 mph 9.2 mph 70 % 0.00 in
15:04 49.9 °F 40.9 °F 30.15 in NE 3.2 mph 5.8 mph 71 % 0.00 in
15:09 49.9 °F 40.5 °F 30.16 in ENE 2.4 mph 4.6 mph 70 % 0.00 in
15:14 49.8 °F 40.4 °F 30.15 in NE 2.1 mph 3.5 mph 70 % 0.00 in
15:19 49.7 °F 40.7 °F 30.16 in ENE 1.5 mph 3.5 mph 71 % 0.00 in
15:24 49.7 °F 40.7 °F 30.17 in ENE 2.8 mph 4.6 mph 71 % 0.00 in
15:34 49.6 °F 40.6 °F 30.17 in North 4.9 mph 6.0 mph 71 % 0.00 in
15:39 49.5 °F 40.5 °F 30.16 in NE 1.5 mph 4.0 mph 71 % 0.00 in
15:44 49.4 °F 40.7 °F 30.16 in NE 2.0 mph 6.0 mph 72 % 0.00 in
15:55 49.2 °F 40.9 °F 30.16 in NNE 5.8 mph 8.0 mph 73 % 0.00 in
16:00 49.2 °F 41.3 °F 30.15 in ENE 3.1 mph 5.8 mph 74 % 0.00 in
16:05 49.1 °F 41.2 °F 30.15 in NNE 2.0 mph 9.0 mph 74 % 0.00 in
16:10 48.9 °F 41.0 °F 30.14 in NNE 5.2 mph 10.4 mph 74 % 0.00 in
16:15 48.8 °F 41.2 °F 30.14 in ENE 3.4 mph 4.6 mph 75 % 0.00 in
16:20 48.7 °F 41.5 °F 30.14 in North 5.6 mph 9.2 mph 76 % 0.00 in
16:25 48.6 °F 41.4 °F 30.14 in NNE 6.0 mph 14.0 mph 76 % 0.00 in
16:30 48.5 °F 41.3 °F 30.14 in NNE 5.7 mph 8.1 mph 76 % 0.00 in
16:35 48.5 °F 41.6 °F 30.14 in NNE 6.3 mph 12.7 mph 77 % 0.00 in
16:40 48.3 °F 41.4 °F 30.14 in NNE 7.1 mph 11.5 mph 77 % 0.00 in
16:45 48.1 °F 41.6 °F 30.14 in NNW 7.0 mph 11.5 mph 78 % 0.00 in
16:50 47.9 °F 41.4 °F 30.14 in NNE 6.0 mph 12.0 mph 78 % 0.00 in
16:55 47.7 °F 41.5 °F 30.15 in North 6.0 mph 10.4 mph 79 % 0.00 in
17:00 47.5 °F 41.6 °F 30.14 in NNE 4.7 mph 11.5 mph 80 % 0.00 in
17:05 47.2 °F 41.7 °F 30.14 in NE 6.2 mph 12.7 mph 81 % 0.00 in
17:10 47.0 °F 42.1 °F 30.14 in NNE 2.7 mph 4.6 mph 83 % 0.00 in
17:11 47.0 °F 42.1 °F 30.14 in North 5.0 mph 9.2 mph 83 % 0.00 in
17:16 46.8 °F 42.5 °F 30.14 in NE 4.4 mph 6.9 mph 85 % 0.00 in
17:21 46.5 °F 42.2 °F 30.13 in NE 4.7 mph 9.2 mph 85 % 0.00 in
17:26 46.3 °F 42.6 °F 30.13 in NE 4.3 mph 11.5 mph 87 % 0.00 in
17:31 46.0 °F 42.3 °F 30.13 in NNE 6.0 mph 15.0 mph 87 % 0.00 in
17:36 45.7 °F 42.6 °F 30.13 in North 9.8 mph 15.0 mph 89 % 0.00 in
17:41 45.5 °F 42.7 °F 30.12 in NNE 7.7 mph 11.5 mph 90 % 0.00 in
17:46 45.3 °F 42.8 °F 30.12 in NNE 7.6 mph 13.8 mph 91 % 0.00 in
17:51 45.2 °F 42.7 °F 30.12 in North 8.2 mph 17.3 mph 91 % 0.00 in
17:56 45.1 °F 42.9 °F 30.13 in North 12.6 mph 19.6 mph 92 % 0.00 in
18:01 44.9 °F 42.7 °F 30.13 in ENE 8.7 mph 15.0 mph 92 % 0.01 in
18:06 44.8 °F 42.6 °F 30.13 in North 9.3 mph 13.8 mph 92 % 0.01 in
18:11 44.7 °F 42.5 °F 30.13 in North 10.1 mph 19.6 mph 92 % 0.01 in
18:16 44.6 °F 42.4 °F 30.14 in NE 10.2 mph 16.1 mph 92 % 0.01 in
18:21 44.4 °F 42.2 °F 30.14 in NNE 9.7 mph 15.0 mph 92 % 0.01 in
18:26 44.2 °F 42.0 °F 30.15 in NE 9.9 mph 13.0 mph 92 % 0.01 in
18:31 44.1 °F 42.2 °F 30.15 in NNE 10.4 mph 16.0 mph 93 % 0.01 in
18:36 44.0 °F 42.1 °F 30.15 in North 9.8 mph 13.8 mph 93 % 0.01 in
18:41 43.9 °F 42.0 °F 30.15 in NNE 11.5 mph 20.7 mph 93 % 0.01 in
18:46 43.8 °F 41.9 °F 30.16 in North 8.2 mph 17.3 mph 93 % 0.01 in
18:51 43.8 °F 41.9 °F 30.16 in North 5.6 mph 11.0 mph 93 % 0.01 in
18:56 43.8 °F 41.9 °F 30.16 in NNE 5.9 mph 11.5 mph 93 % 0.01 in
19:01 43.8 °F 42.2 °F 30.17 in NNE 5.8 mph 11.5 mph 94 % 0.00 in
19:06 43.7 °F 42.1 °F 30.17 in North 8.1 mph 12.0 mph 94 % 0.00 in
19:12 43.7 °F 42.1 °F 30.18 in NNE 8.1 mph 9.0 mph 94 % 0.00 in
19:17 43.7 °F 42.1 °F 30.18 in NNE 7.3 mph 11.5 mph 94 % 0.00 in
19:22 43.7 °F 42.1 °F 30.18 in NNE 11.5 mph 19.6 mph 94 % 0.00 in
19:27 43.6 °F 42.0 °F 30.17 in NNE 6.9 mph 11.5 mph 94 % 0.01 in
19:32 43.6 °F 42.0 °F 30.17 in NE 8.1 mph 13.8 mph 94 % 0.01 in
19:37 43.4 °F 41.8 °F 30.17 in NNE 10.3 mph 15.0 mph 94 % 0.01 in
19:42 43.3 °F 41.7 °F 30.16 in NNE 7.9 mph 13.0 mph 94 % 0.01 in
19:47 43.2 °F 41.6 °F 30.16 in North 9.0 mph 15.0 mph 94 % 0.01 in
19:52 43.1 °F 41.5 °F 30.16 in East 6.7 mph 10.4 mph 94 % 0.01 in
19:57 43.1 °F 41.5 °F 30.17 in NNE 8.8 mph 12.0 mph 94 % 0.01 in
20:07 42.9 °F 41.3 °F 30.17 in NE 7.7 mph 10.4 mph 94 % 0.01 in
20:13 42.8 °F 41.2 °F 30.18 in NNE 5.7 mph 10.4 mph 94 % 0.01 in
20:18 42.7 °F 41.1 °F 30.18 in NNE 8.3 mph 11.5 mph 94 % 0.02 in
20:28 42.5 °F 40.9 °F 30.18 in North 11.6 mph 19.6 mph 94 % 0.01 in
20:33 42.5 °F 41.2 °F 30.18 in NNE 10.4 mph 15.0 mph 95 % 0.01 in
20:38 42.5 °F 41.2 °F 30.18 in NNE 11.3 mph 18.0 mph 95 % 0.01 in
20:43 42.3 °F 40.7 °F 30.18 in North 9.1 mph 16.1 mph 94 % 0.01 in
20:48 42.3 °F 40.7 °F 30.18 in NE 11.4 mph 16.1 mph 94 % 0.01 in
20:53 42.2 °F 40.9 °F 30.18 in North 8.2 mph 10.4 mph 95 % 0.01 in
20:58 42.2 °F 40.9 °F 30.18 in NNE 9.8 mph 18.4 mph 95 % 0.01 in
21:03 42.2 °F 40.9 °F 30.18 in NNE 5.4 mph 11.5 mph 95 % 0.01 in
21:08 42.3 °F 41.0 °F 30.18 in NE 7.3 mph 11.5 mph 95 % 0.02 in
21:13 42.4 °F 41.1 °F 30.18 in North 8.5 mph 17.3 mph 95 % 0.02 in
21:18 42.5 °F 41.2 °F 30.18 in NNE 5.4 mph 12.7 mph 95 % 0.01 in
21:23 42.5 °F 41.4 °F 30.17 in North 9.3 mph 17.3 mph 96 % 0.01 in
21:28 42.6 °F 41.5 °F 30.17 in NNE 8.1 mph 13.8 mph 96 % 0.01 in
21:34 42.6 °F 41.5 °F 30.17 in NNE 8.0 mph 15.0 mph 96 % 0.01 in
21:39 42.7 °F 41.6 °F 30.17 in NNE 9.2 mph 16.0 mph 96 % 0.01 in
21:44 42.7 °F 41.6 °F 30.15 in ENE 8.3 mph 18.4 mph 96 % 0.01 in
21:49 42.7 °F 41.6 °F 30.15 in NNE 7.5 mph 11.5 mph 96 % 0.01 in
21:54 42.8 °F 41.7 °F 30.15 in North 7.9 mph 15.0 mph 96 % 0.02 in
21:59 42.8 °F 41.7 °F 30.15 in NE 8.9 mph 12.7 mph 96 % 0.02 in
22:04 42.8 °F 41.7 °F 30.15 in NNE 7.4 mph 11.5 mph 96 % 0.01 in
22:09 42.9 °F 41.8 °F 30.15 in North 6.2 mph 11.5 mph 96 % 0.01 in
22:14 42.9 °F 41.8 °F 30.15 in NNE 8.7 mph 19.6 mph 96 % 0.01 in
22:19 42.9 °F 41.8 °F 29.92 in North 10.0 mph 19.6 mph 96 % 0.01 in
22:23 42.9 °F 41.8 °F 30.14 in NE 5.4 mph 11.5 mph 96 % 0.01 in
22:28 42.9 °F 41.8 °F 30.14 in NNE 8.6 mph 13.8 mph 96 % 0.01 in
22:33 42.8 °F 41.7 °F 30.14 in NNE 7.6 mph 15.0 mph 96 % 0.01 in
22:38 42.8 °F 41.7 °F 30.14 in NE 7.4 mph 19.6 mph 96 % 0.02 in
22:43 42.7 °F 41.6 °F 30.14 in NNE 11.7 mph 17.3 mph 96 % 0.02 in
22:48 42.6 °F 41.5 °F 30.15 in NNE 9.1 mph 13.8 mph 96 % 0.02 in
22:53 42.4 °F 41.3 °F 30.14 in ENE 10.8 mph 16.1 mph 96 % 0.01 in
22:58 42.4 °F 41.3 °F 30.15 in ENE 8.5 mph 13.8 mph 96 % 0.01 in
23:03 42.3 °F 41.2 °F 30.15 in NE 5.4 mph 18.4 mph 96 % 0.01 in
23:08 42.3 °F 41.2 °F 30.15 in East 4.1 mph 9.2 mph 96 % 0.01 in
23:13 42.3 °F 41.2 °F 30.15 in ENE 6.7 mph 11.5 mph 96 % 0.01 in
23:18 42.3 °F 41.2 °F 30.15 in NE 5.9 mph 9.0 mph 96 % 0.02 in
23:23 42.3 °F 41.2 °F 30.15 in East 6.5 mph 11.5 mph 96 % 0.02 in
23:28 42.3 °F 41.2 °F 30.15 in East 3.9 mph 11.5 mph 96 % 0.02 in
23:33 42.4 °F 41.3 °F 30.15 in NNE 6.1 mph 10.4 mph 96 % 0.02 in
23:38 42.3 °F 41.2 °F 30.15 in NNE 4.5 mph 9.2 mph 96 % 0.01 in
23:43 42.3 °F 41.2 °F 30.15 in ENE 7.8 mph 11.5 mph 96 % 0.01 in
23:49 42.3 °F 41.2 °F 30.15 in ENE 5.2 mph 7.0 mph 96 % 0.01 in
23:54 42.4 °F 41.3 °F 30.15 in ENE 3.8 mph 10.4 mph 96 % 0.01 in
23:59 42.4 °F 41.3 °F 30.15 in ENE 6.1 mph 13.8 mph 96 % 0.01 in
Crab Meadow Weather
Compliments of Weather Underground - 3 mb

Script developed by  Jim McMurry - jmcmurry@mwt.net Adapted for the template by  Wim van der Kuil - Leuven-Template.eu

Weather Terms: Winter Storm Watch - Conditions are favorable for hazardous winter weather conditions including heavy snow, blizzard conditions, or significant accumulations of freezing rain or sleet. These watches are issued by the Weather Service Forecast Office in Upton and are usually issued 12 to 36 hours in advance of the event.